Location: Chimay
(50.0486°N, 4.3171°E)
Time: 08:20:23
(UTC+00:00)

Cosmos 1975 Rocket - Pass Details

Date: 08 August 2020
Orbit: 603 x 635 km, 82.5° (Epoch: 26 September)

Event Time Altitude Azimuth Distance (km) Brightness Sun altitude
Rises 23:35:26 0° 352° (N) 2,947 8.0 -24.1°
Reaches altitude 10° 23:37:43 10° 355° (N) 2,033 6.8 -24.1°
Maximum altitude 23:42:12 63° 77° (ENE) 711 3.3 -24.2°
Enters shadow 23:42:23 62° 92° (E) 715 3.2 -24.2°
